www.pogodaiklimat.ru

Погода и климат >> Архив погоды >> Пакистан >> Pad Idan


ПОГОДА в Pad Idan

  • Прогноз погоды в Pad Idan
  • Монитор погоды в Pad Idan
  • Климат города

АРХИВ ПОГОДЫ в Pad Idan

Время (UTC), дата Ветер
(напр.,м/с)
 
Видим.   Явления Облачность Т
(С)
Тd
(С)
f
(%)
Тe
(С)
Тes
(С)
Комфортность P
(гПа)
Po
(гПа)
Тmin
(С)
Tmax
(С)
R
(мм)
R24
(мм)
S
(см)
03 14.06 ЮЗ 1 4000 м ясно +30.0 +21.1 59 +38 +44 очень
душно
991.6 1000.0 +27.1
06 14.06 ЮВ 3 4000 м ясно +39.0 +19.9 33 +44 +60 опасность
перегрева
994.2 994.0
09 14.06 ЮВ 3 4000 м ясно +44.0 +16.9 21 +46 +62 опасность
перегрева
991.1 991.0
12 14.06 ЮЗ 3 4000 м ясно +43.0 +19.6 26 +47 +52 опасность
перегрева
989.8 984.9 +45.0
15 14.06 ЮЗ 2 4000 м ясно +39.0 +19.9 33 +44 +44 опасность
перегрева
990.7 991.0
18 14.06 ЮВ 2 4000 м ясно +31.0 +22.3 60 +40 +40 очень
душно
992.6 993.0
21 14.06 ЮВ 2 4000 м ясно +29.5 +21.4 62 +37 +37 очень
душно
992.0 992.0
03 15.06 ЮВ 1 4000 м ясно +30.5 +24.1 69 +42 +49 опасность
перегрева
992.8 987.7 +28.5
06 15.06 ЮВ 1 4000 м ясно +39.0 +25.2 46 +52 +77 опасность
перегрева
995.2 1000.0
09 15.06 ЮВ 1 4000 м ясно +43.5 +25.8 37 +57 +81 опасность
перегрева
991.9 1000.0
12 15.06 ЮЗ 3 2000 м пыльный позёмок ясно +40.5 +26.2 45 +56 +60 опасность
перегрева
990.5 991.0 +43.5
15 15.06 ЮЗ 1 4000 м ясно +36.0 +23.2 48 +46 +46 опасность
перегрева
992.4 1000.0
18 15.06 ЮЗ 2 4000 м ясно +31.0 +23.9 66 +43 +43 опасность
перегрева
994.6 995.0
21 15.06 ЮЗ 1 4000 м ясно +28.0 +25.2 85 +41 +41 опасность
перегрева
993.7 994.0
00 16.06 ЮЗ 1 4000 м ясно +27.0 +24.1 84 +37 +37 очень
душно
992.9 1000.0
03 16.06 ЮЗ 1 4000 м ясно +28.0 +23.7 77 +38 +45 очень
душно
993.6 994.0 +27.0
06 16.06 Ю 1 4000 м ясно +38.0 +24.8 47 +51 +73 опасность
перегрева
995.8 996.0
09 16.06 Ю 1 4000 м ясно +42.0 +25.6 40 +55 +78 опасность
перегрева
993.0 993.0
12 16.06 Ю 2 4000 м ясно +42.0 +23.9 36 +52 +57 опасность
перегрева
991.9 987.0 +43.5
15 16.06 Ю 2 4000 м ясно +37.5 +24.2 47 +49 +49 опасность
перегрева
993.7 994.0
18 16.06 ЮВ 2 4000 м ясно +32.5 +23.2 58 +43 +43 опасность
перегрева
995.5 996.0
21 16.06 ЮВ 1 4000 м ясно +28.0 +22.1 70 +36 +36 очень
душно
993.4 988.3
00 17.06 ЮВ 1 4000 м ясно +28.0 +22.1 70 +36 +36 очень
душно
993.4 988.3
03 17.06 ЮВ 1 4000 м ясно +30.5 +24.1 69 +42 +49 опасность
перегрева
994.9 989.8 +27.5
06 17.06 ЮВ 1 4000 м ясно +37.5 +26.6 54 +54 +77 опасность
перегрева
997.0 997.0
09 17.06 ЮВ 1 4000 м ясно +41.0 +28.4 50 +62 +86 опасность
перегрева
994.0 1000.0
12 17.06 ЮЗ 1 2000 м 10/5 300 м
[Sc As op]
+41.5 +20.5 30 +47 +48 опасность
перегрева
992.5 1001.5 +43.1
15 17.06 ЮЗ 1 2000 м мгла 10/5 300 м
[Sc As op]
+36.0 +23.2 48 +46 +46 опасность
перегрева
993.8 1000.0 0.0
18 17.06 ЮЗ 1 2000 м 6/4 1200 м
[Sc As op]
+31.0 +23.9 66 +43 +43 опасность
перегрева
994.2 994.0
21 17.06 ЮЗ 1 4000 м ясно +28.0 +23.7 77 +38 +38 очень
душно
993.5 1000.0
00 18.06 ЮЗ 1 4000 м 8/0 300 м
[]
+27.0 +24.1 84 +37 +37 очень
душно
993.0 1000.0
03 18.06 ЮЗ 1 4000 м 8/8 1200 м
[]
+31.0 +23.9 66 +43 +44 опасность
перегрева
994.7 995.0 +27.0
06 18.06 ЮВ 1 4000 м 3/0
[Ci fib]
+36.5 +25.5 53 +51 +72 опасность
перегрева
1000.1 1000.0
09 18.06 СЗ 1 4000 м 10/5 1200 м
[Sc As op]
+38.5 +25.4 48 +53 +55 опасность
перегрева
998.3 998.0
12 18.06 СЗ 1 4000 м 8/4 1200 м
[Sc As op]
+38.5 +26.2 50 +54 +56 опасность
перегрева
995.6 990.6 +40.0
15 18.06 ЮЗ 3 4000 м 8/5 1200 м
[Sc Ac trans]
+32.0 +20.0 49 +38 +38 очень
душно
998.0 998.0
18 18.06 штиль 0 4000 м 10/5 1200 м
[Sc As op]
+32.0 +18.2 44 +37 +37 очень
душно
998.4 998.0
21 18.06 штиль 0 1000 м ясно +30.5 +18.2 48 +35 +35 очень
душно
996.4 1000.0
00 19.06 ЮВ 1 1000 м 3/0
[Ac trans]
+29.0 +18.2 52 +34 +34 очень
душно
996.8 991.6
03 19.06 ЮВ 1 4000 м 3/0
[Ci fib]
+31.0 +23.9 66 +43 +49 опасность
перегрева
999.1 993.9 +28.5
06 19.06 ЮВ 1 4000 м ясно +38.0 +23.1 43 +48 +73 опасность
перегрева
998.9 1000.0
09 19.06 ЮВ 1 4000 м ясно +42.0 +20.2 29 +47 +72 опасность
перегрева
997.0 1000.0
12 19.06 ЮВ 1 4000 м ясно +40.5 +21.0 33 +47 +54 опасность
перегрева
995.5 990.5 +43.1
15 19.06 ЮВ 1 4000 м ясно +34.0 +20.8 46 +41 +41 опасность
перегрева
997.2 997.0
18 19.06 ЮЗ 1 4000 м ясно +30.0 +21.1 59 +38 +38 очень
душно
998.2 1000.0
21 19.06 ЮЗ 1 4000 м ясно +29.0 +21.6 64 +37 +37 очень
душно
997.0 1000.0
00 20.06 ЮЗ 1 4000 м ясно +28.5 +23.5 74 +39 +39 очень
душно
996.5 1000.0
03 20.06 ЮЗ 1 4000 м ясно +30.5 +24.1 69 +42 +49 опасность
перегрева
998.9 1000.0 +28.1
06 20.06 ЮВ 1 4000 м 3/0
[Ci fib]
+38.0 +24.0 45 +49 +71 опасность
перегрева
999.3 999.0
09 20.06 Ю 1 4000 м ясно +43.0 +23.5 33 +52 +75 опасность
перегрева
997.1 997.0
12 20.06 ЮВ 2 4000 м ясно +41.5 +24.1 37 +52 +57 опасность
перегрева
995.4 990.3 +43.0
15 20.06 ЮВ 1 4000 м ясно +35.0 +24.5 55 +48 +48 опасность
перегрева
996.6 997.0
18 20.06 ЮВ 1 4000 м ясно +34.0 +24.1 56 +46 +46 опасность
перегрева
997.7 998.0

 

Местоположение метеостанции Pad Idan (Пакистан): широта 26.85 долгота 68.13 высота над уровнем моря 47 м.

В архиве по умолчанию представлена погода в Pad Idan за последнюю неделю. Архивные данные за месяц целиком и за предыдущие месяцы, начиная с января 2011 года, Вы можете получить, выбрав интересующий диапазон дат из раскрывающегося списка и нажав кнопку "Ввод!".


*Определитесь, кто Вы:
робот инопланетянин человек

Внимание! Время в таблицах - всемирное. Для получения местного времени необходимо прибавить поправку, которая в Pad Idan равна 5 ч.

Смотрите также архив погоды в соседних городах и на ближайших метеорологических станциях:

Погода в Nawabshah (Пакистан) (71 км)
Погода в Rohri (Пакистан) (119 км)
Погода в Jacobabad (Пакистан) (165 км)
Погода в Hyderabad (Пакистан) (166 км)
Погода в Khuzdar (Пакистан) (184 км)
Погода в Sakrand (Пакистан) (192 км)
Погода в Chhor (Пакистан) (221 км)
Погода в Karachi (Пакистан) (239 км)
Погода в Badin (Пакистан) (259 км)
Погода в Jaisalmer (Rajasthan, Индия) (277 км)

Пояснения к столбцам:

Ветер - указаны скорость ветра в м/с - средняя за 10 мин, порывы в срок и между сроками (в фигурных скобках) и направление, откуда дует ветер: С - северный, СВ - северо-восточный, В - восточный, ЮВ - юго-восточный, Ю - южный, ЮЗ - юго-западный, З - западный, СЗ - северо-западный.
Видимость - горизонтальная дальность видимости в метрах или километрах. При видимости от 1 до 10 км при отсутствии осадков обычно наблюдается дымка, при ухудшении видимости до 1 км и менее - туман. В сухую погоду видимость может ухудшаться дымом, пылью или мглою.
Явления - указаны атмосферные явления, наблюдавшиеся в срок или в последний час перед сроком; фигурными скобками обозначены явления, наблюдавшиеся между сроками (за 1-3 часа до срока); квадратными скобками обозначены град или гололедные отложения с указанием их диаметра в мм.
Облачность - указаны через наклонную черту общая и нижняя облачность в баллах и высота нижней границы облаков в метрах; квадратными скобками обозначены формы облаков: Ci - перистые, Cs - перисто-слоистые, Cc - перисто-кучевые, Ac - высококучевые, As - высокослоистые, Sc - слоисто-кучевые, Ns - слоисто-дождевые, Cu - кучевые, Cb - кучево-дождевые. Подробнее классификацию облаков см. в Атласе облаков (PDF).
T - Температура воздуха - температура, измеренная на высоте 2 м над землей.
Td - Температура точки росы - температура, при понижении до которой содержащийся в воздухе водяной пар достигнет насыщения.
f - Относительная влажность воздуха - влажноcть воздуха, измеренная на высоте 2 м над землей.
Te - Эффективная температура - температура, которую ощущает одетый по сезону человек в тени. Характеристика душности погоды. При расчете учитывается влияние влажности воздуха и скорости ветра на теплоощущения человека.
Tes - Эффективная температура на солнце - температура, которую ощущает человек, с поправкой на солнечный нагрев. Характеристика знойности погоды. Зависит от высоты солнца над горизонтом, облачности и скорости ветра. Ночью, в пасмурную погоду, а также при ветре 12 м/с и более поправка равна нулю.
P - Атмосферное давление - приведенное к уровню моря атмосферное давление.
Po - Атмосферное давление - измеренное на уровне метеостанции атмосферное давление.
Tmin - Минимальная температура - минимум температуры воздуха на высоте 2 м над землей.
Tmax - Максимальная температура - максимум температуры воздуха на высоте 2 м над землей.
R - Количество осадков - Количество выпавших осадков за период времени, мм. При наведении курсора мыши на число - период времени, за который выпало указанное количество осадков.
R24 - Количество осадков - Количество выпавших осадков за 24 часа, мм.
S - Снежный покров - Высота снежного покрова, см. При наведении курсора мыши на число - состояние снежного покрова и степень покрытия местности в баллах.